Location: Newark
(48.1500°N, 2.9667°W)
Time: 07:39:44
(UTC+00:00)

Altair - Pass Details

Date: 30 January 2020
Orbit: 1502 x 1682 km, 47.2° (Epoch: 17 February)

Event Time Altitude Azimuth Distance (km) Brightness Sun altitude
Rises 05:41:02 0° 192° (SSW) 4,810 10.0 -20.4°
Reaches altitude 10° 05:44:53 10° 179° (S) 3,855 9.7 -19.8°
Maximum altitude 05:52:14 24° 130° (SE) 2,924 9.6 -18.6°
Drops below altitude 10° 05:59:43 10° 82° (E) 3,941 10.8 -17.3°
Sets 06:03:40 0° 70° (ENE) 4,939 11.3 -16.7°
